This is the latest recevied weather packets stored in our database for station/object KB1WCR. If no packets are shown the sender has not sent any weather packets the latest 1 day(s).
| Time | Temp. | Humidity | Pressure | Rain* | Wind** | Luminosity | Snow |
|---|---|---|---|---|---|---|---|
| 1777991817 | 20.56° C | 55% | 1008 hPa | 0 mm | 1.79 m/s, 205° | 328 W/m² | - |
| 1777991515 | 20.56° C | 55% | 1007.9 hPa | 0 mm | 1.34 m/s, 190° | 269 W/m² | - |
| 1777991211 | 20° C | 57% | 1007.7 hPa | 0 mm | 0.89 m/s, 183° | 245 W/m² | - |
| 1777990909 | 20° C | 59% | 1007.8 hPa | 0 mm | 0.45 m/s, 229° | 227 W/m² | - |
| 1777990607 | 20° C | 57% | 1007.4 hPa | 0 mm | 0.45 m/s, 274° | 139 W/m² | - |
| 1777990303 | 20° C | 57% | 1007.3 hPa | 0 mm | 0.45 m/s, 176° | 133 W/m² | - |
| 1777989999 | 20° C | 56% | 1007.3 hPa | 0 mm | 0.45 m/s, 267° | 167 W/m² | - |
| 1777989697 | 20° C | 56% | 1007.3 hPa | 0 mm | 0.89 m/s, 215° | 345 W/m² | - |
| 1777989392 | 20.56° C | 55% | 1007.2 hPa | 0 mm | 1.79 m/s, 230° | 256 W/m² | - |
| 1777989089 | 20.56° C | 56% | 1007.4 hPa | 0 mm | 0.89 m/s, 220° | 526 W/m² | - |
| 1777988785 | 20° C | 55% | 1007.6 hPa | 0 mm | 1.79 m/s, 213° | 641 W/m² | - |
| 1777988483 | 19.44° C | 57% | 1007.7 hPa | 0 mm | 1.79 m/s, 201° | 576 W/m² | - |
| 1777988180 | 18.89° C | 58% | 1008 hPa | 0 mm | 1.34 m/s, 224° | 557 W/m² | - |
| 1777987875 | 18.33° C | 60% | 1007.9 hPa | 0 mm | 0.89 m/s, 193° | 538 W/m² | - |
| 1777987572 | 18.33° C | 60% | 1008 hPa | 0 mm | 1.79 m/s, 229° | 223 W/m² | - |
| 1777987270 | 18.33° C | 62% | 1008.1 hPa | 0 mm | 0.89 m/s, 238° | 316 W/m² | - |
| 1777986966 | 18.33° C | 61% | 1008.1 hPa | 0 mm | 0.89 m/s, 289° | 560 W/m² | - |
| 1777986664 | 17.78° C | 61% | 1008.2 hPa | 0 mm | 2.24 m/s, 207° | 403 W/m² | - |
| 1777986362 | 17.78° C | 62% | 1008.4 hPa | 0 mm | 1.79 m/s, 209° | 602 W/m² | - |
| 1777986060 | 17.78° C | 62% | 1008.5 hPa | 0 mm | 0.89 m/s, 236° | 275 W/m² | - |
| 1777985756 | 18.33° C | 62% | 1008.5 hPa | 0 mm | 1.34 m/s, 250° | 243 W/m² | - |
| 1777985453 | 17.78° C | 63% | 1008.3 hPa | 0 mm | 1.79 m/s, 296° | 410 W/m² | - |
| 1777985150 | 17.22° C | 62% | 1008 hPa | 0 mm | 1.79 m/s, 234° | 496 W/m² | - |
| 1777984846 | 17.22° C | 64% | 1007.9 hPa | 0 mm | 0.89 m/s, 286° | 455 W/m² | - |
| 1777984542 | 16.67° C | 65% | 1007.8 hPa | 0 mm | 1.34 m/s, 216° | 473 W/m² | - |
* Rain latest hour (hover to see other rain measurements)
** Current wind speed in m/s (hover to see current wind gust speed)